Starlink 32634

operational
NORAD ID: 62313 Int'l Des: 2024-239 Owner: SPXS Country: US Constellation: starlink
LEOCIRCULAR

关于 Starlink 32634

正在加载描述...

实时位置

正在加载3D地球...

即将过境

高度历史

Altitude vs Time

uPlot chart will show altitude changes over time

两行轨道根数

1 62313U 24239N 25354.57328313 .00022406 00000-0 76549-3 0 9994
2 62313 53.1561 188.4275 0003431 78.8088 281.3298 15.30233152 57452
Epoch: Dec 20, 2025 • Age: 10 hours

当前状态

高度 474.9 km
速度 7.63 km/s
星下点 29.10°N, 131.4°E
发射日期 Dec 13, 2024
运行时间 1 years
类型 internet

技术详情

分类 Payload
质量 730.00 kg
干质量 700.00 kg
总质量 730.00 kg
长度 0.30 m
直径 4.10 m
跨度 29.00 m
形状 Box + pan
制造商 SPXS
平台类型 Starlink V2M
阶段状态 In Orbit
所有者/国家 SPXS/US

大型星座

Loading constellations...